Charlotte, NC

5:53 AM EDT on August 22, 2017 (GMT -0400)
Charlotte-Douglas International

Weather History for KCLT - March, 2003

Change the Weather History Date:

Wednesday, March 5, 2003

  Actual Average Record
Temperature  
Mean Temperature 54 °F 48 °F  
Max Temperature 60 °F 60 °F 84 °F (1955)
Min Temperature 48 °F 37 °F 12 °F (1960)
Degree Days  
Heating Degree Days 11 17  
Month to date heating degree days 87  
Since 1 July heating degree days 2786  
Cooling Degree Days 0 0  
Month to date cooling degree days 0  
Year to date cooling degree days 0  
Growing Degree Days 4 (Base 50)    
Moisture  
Dew Point 52 °F    
Average Humidity 96    
Maximum Humidity 100    
Minimum Humidity 82    
Precipitation  
Precipitation 0.13 in 0.14 in 1.65 in (1984)
Month to date precipitation 0.66  
Year to date precipitation 7.39  
Snow  
Snow 0.00 in 0.00 in 1.70 in (1912)
Month to date snowfall 0.1  
Since 1 July snowfall 3.8  
Snow Depth -    
Sea Level Pressure  
Sea Level Pressure 29.87 in    
Wind  
Wind Speed 4 mph (SW)    
Max Wind Speed 12 mph    
Max Gust Speed -    
Visibility 6 miles    
Events Rain    
T = Trace of Precipitation, MM = Missing Value Source: NWS Daily Summary

Daily Weather History Graph

Daily Weather History Graph

Search for Another Location

Airport or City:

Trip Planner

Search our weather history database for the weather conditions in past years. The results will help you decide how hot, cold, wet, or windy it might be!

Date:

Astronomy

Mar. 05, 2003 Rise Set
Actual Time 6:48 AM EST 6:22 PM EST
Civil Twilight 6:23 AM EST 6:47 PM EST
Nautical Twilight 5:53 AM EST 7:17 PM EST
Astronomical Twilight 5:24 AM EST 7:46 PM EST
Moon 8:19 AM EST (3/5) 8:53 PM EST (3/5)
Length of Visible Light 12h 24m
Length of Day
11h 34m
Waxing Crescent, 6% of the Moon is Illuminated
Mar 5
Waxing Crescent
Mar 11
First Quarter
Mar 18
Full
Mar 24
Last Quarter
Apr 1
New

Hourly Weather History & Observations

Time (EST) Temp. Dew Point Humidity Pressure Visibility Wind Dir Wind Speed Gust Speed Precip Events Conditions
12:12 AM 50.0 °F 50.0 °F 100% 29.95 in 2.5 mi Calm Calm - 0.01 in Rain Light Rain
12:31 AM 48.2 °F 48.2 °F 100% 29.92 in 3.0 mi Calm Calm - 0.03 in Rain Light Rain
12:51 AM 48.9 °F 48.9 °F 100% 29.91 in 3.0 mi NNW 3.5 mph - 0.03 in Rain Light Rain
1:32 AM 48.2 °F 48.2 °F 100% 29.92 in 1.5 mi NW 5.8 mph - 0.04 in Rain Rain
1:44 AM 48.2 °F 48.2 °F 100% 29.91 in 2.0 mi NW 5.8 mph - 0.04 in Rain Light Rain
1:51 AM 48.9 °F 48.9 °F 100% 29.90 in 3.0 mi Calm Calm - 0.05 in Rain Light Rain
2:20 AM 48.2 °F 48.2 °F 100% 29.87 in 3.0 mi North 4.6 mph - 0.01 in   Light Drizzle
2:51 AM 48.0 °F 48.0 °F 100% 29.88 in 2.5 mi NW 8.1 mph - 0.01 in Rain Light Rain
3:08 AM 48.2 °F 48.2 °F 100% 29.87 in 1.5 mi NW 4.6 mph - 0.01 in Rain Light Rain
3:51 AM 48.0 °F 48.0 °F 100% 29.85 in 1.5 mi NNW 4.6 mph - 0.02 in Rain Light Rain
4:51 AM 48.0 °F 48.0 °F 100% 29.86 in 1.5 mi Calm Calm - 0.00 in   Overcast
5:51 AM 48.0 °F 48.0 °F 100% 29.86 in 1.5 mi NW 3.5 mph - N/A   Overcast
6:37 AM 48.2 °F 48.2 °F 100% 29.86 in 0.5 mi South 3.5 mph - N/A   Overcast
6:51 AM 48.0 °F 48.0 °F 100% 29.86 in 0.5 mi Calm Calm - N/A   Overcast
7:29 AM 48.2 °F 48.2 °F 100% 29.86 in 0.5 mi Calm Calm - N/A   Overcast
7:41 AM 48.2 °F 48.2 °F 100% 29.86 in 1.5 mi South 4.6 mph - N/A   Overcast
7:51 AM 48.9 °F 48.9 °F 100% 29.86 in 1.5 mi Calm Calm - N/A   Overcast
8:42 AM 48.2 °F 48.2 °F 100% 29.88 in 1.5 mi SW 4.6 mph - N/A   Overcast
8:51 AM 50.0 °F 50.0 °F 100% 29.88 in 1.5 mi Variable 3.5 mph - N/A   Overcast
9:51 AM 50.0 °F 50.0 °F 100% 29.88 in 1.5 mi SW 5.8 mph - N/A   Overcast
10:21 AM 51.8 °F 51.8 °F 100% 29.88 in 6.0 mi Variable 5.8 mph - N/A   Overcast
10:51 AM 53.1 °F 53.1 °F 100% 29.89 in 10.0 mi SSW 8.1 mph - N/A   Overcast
11:51 AM 55.0 °F 54.0 °F 96% 29.88 in 10.0 mi WSW 8.1 mph - N/A   Overcast
12:51 PM 59.0 °F 55.0 °F 87% 29.87 in 10.0 mi SW 8.1 mph - N/A   Overcast
1:18 PM 59.0 °F 55.4 °F 88% 29.86 in 10.0 mi Variable 4.6 mph - N/A   Overcast
1:51 PM 60.1 °F 55.0 °F 83% 29.83 in 10.0 mi SSW 9.2 mph - N/A   Overcast
2:31 PM 60.8 °F 55.4 °F 82% 29.84 in 10.0 mi SSW 6.9 mph - N/A   Overcast
2:51 PM 60.1 °F 55.0 °F 83% 29.84 in 10.0 mi SSW 8.1 mph - N/A   Overcast
3:51 PM 60.1 °F 55.0 °F 83% 29.83 in 10.0 mi South 6.9 mph - N/A   Overcast
4:51 PM 59.0 °F 55.9 °F 90% 29.83 in 10.0 mi South 8.1 mph - N/A   Overcast
5:51 PM 59.0 °F 55.9 °F 90% 29.86 in 10.0 mi South 11.5 mph - N/A   Overcast
6:51 PM 57.9 °F 55.9 °F 93% 29.88 in 10.0 mi Variable 4.6 mph - N/A   Overcast
7:21 PM 57.2 °F 55.4 °F 94% 29.88 in 10.0 mi SSW 6.9 mph - N/A   Overcast
7:51 PM 57.9 °F 55.9 °F 93% 29.88 in 10.0 mi SSW 4.6 mph - N/A   Overcast
8:51 PM 57.0 °F 55.9 °F 96% 29.88 in 10.0 mi South 4.6 mph - N/A   Overcast
9:13 PM 57.2 °F 55.4 °F 94% 29.88 in 10.0 mi SSW 6.9 mph - N/A   Overcast
9:51 PM 57.0 °F 55.0 °F 93% 29.86 in 10.0 mi South 3.5 mph - N/A   Overcast
10:51 PM 55.9 °F 55.0 °F 97% 29.89 in 10.0 mi SSW 4.6 mph - N/A   Overcast
11:51 PM 55.9 °F 55.0 °F 97% 29.82 in 7.0 mi NNW 6.9 mph - 0.02 in Rain Light Rain